Regional Weather Roundup
Issued by NWS Glasgow, MT

Home | Current Version | Previous Version | Text Only | Print | Product List | Glossary On
Versions: 1 2 3 4 5 6 7 8 9 10 11 12 13 14 15 16 17 18 19 20 21 22 23 24 25 26 27
000
ASUS45 KGGW 230415
RWRGGW
HOURLY REGIONAL WEATHER ROUNDUP FOR NORTHEAST MONTANA
NATIONAL WEATHER SERVICE GLASGOW MONTANA
1000 PM MDT SUN APR 22 2018

NOTE: "FAIR" INDICATES FEW OR NO CLOUDS BELOW 12,000 FEET WITH NO
SIGNIFICANT WEATHER AND/OR OBSTRUCTIONS TO VISISBILITY.

NORTHEAST MONTANA


CITY           SKY/WX    TMP DP  RH WIND       PRES   REMARKS
GLASGOW        CLEAR     47  29  49 N10       30.14R
PLENTYWOOD       N/A     46  28  49 N10G20      N/A
WOLF POINT     PTCLDY    52  29  41 N13       30.13R
JORDAN           N/A     49  32  52 N9        30.13R
WINNETT          N/A     53  30  41 N7G15       N/A
SIDNEY         CLEAR     49  27  42 NE3       30.13R
GLENDIVE       CLEAR     51  28  41 N10       30.13R
MALTA            N/A     44  32  62 SW3         N/A

FORT PECK REPORTS


CITY           SKY/WX    TMP DP  RH WIND       PRES   REMARKS
FORT PECK        N/A     52  27  38 N9          N/A
THE PINES        N/A     48  25  40 N6          N/A

SOUTHEAST MONTANA


CITY           SKY/WX    TMP DP  RH WIND       PRES   REMARKS
BILLINGS       MOCLDY    55  30  38 N12       30.07R
MILES CITY     PTCLDY    52  34  50 N9        30.09R
BAKER          PTCLDY    46  35  65 E5        30.11S
LIVINGSTON     CLOUDY    47  40  76 NW17      30.10R

CENTRAL MONTANA


CITY           SKY/WX    TMP DP  RH WIND       PRES   REMARKS
HAVRE          MOCLDY    48  27  44 N15       30.20R
LEWISTOWN      CLOUDY    48  24  39 N7        30.18R
GREAT FALLS    CLOUDY    45  22  40 N12       30.19R
CUT BANK       CLEAR     37  23  56 N10       30.23R
HELENA         CLOUDY    53  24  32 N18G24    30.13R
BUTTE          LGT RAIN  43  38  82 CALM      30.13R
BOZEMAN        RAIN      43  39  86 N20G30    30.14R

WESTERN MONTANA


CITY           SKY/WX    TMP DP  RH WIND       PRES   REMARKS
MISSOULA       PTCLDY    48  20  32 NW7       30.15R
KALISPELL      NOT AVBL

NORTH DAKOTA


CITY           SKY/WX    TMP DP  RH WIND       PRES   REMARKS
WILLISTON      CLEAR     52  26  36 NW13      30.12R
DICKINSON      CLEAR     48  26  42 E7        30.10R
MINOT          CLEAR     52  32  46 S9        30.09S
BISMARCK       CLOUDY    53  39  59 E5        30.12S

SOUTHERN SASKATCHEWAN


CITY           SKY/WX    TMP DP  RH WIND       PRES   REMARKS
REGINA         CLEAR     43  32  65 NW14      30.14R
ESTEVAN        PTCLDY    41  27  56 NW7       30.13R
SWIFT CURRENT  CLEAR     37  30  75 NW9       30.17R





USA.gov is the U.S. government's official web portal to all federal, state and local government web resources and services.